Location: ??????
(56.0120°N, 39.1740°E)
Time: 19:46:40
(UTC+00:00)

NOSS 3-1 (A) - Pass Details

Date: 14 April 2026
Orbit: 613 x 1593 km, 63.4° (Epoch: 10 January)

Event Time Altitude Azimuth Distance (km) Brightness Sun altitude
Rises 19:04:14 0° 302° (WNW) 3,460 7.6 -18.3°
Reaches altitude 10° 19:06:31 10° 305° (NW) 2,641 6.9 -18.5°
Maximum altitude 19:12:45 63° 27° (NNE) 1,223 4.1 -19.0°
Enters shadow 19:18:50 18° 105° (ESE) 2,708 5.4 -19.4°
